Year,Month,Day,Hour,Minute,Value (Times are PST for temperature in C)
2018,05,21,00,00,11.50
2018,05,21,00,01,11.50
2018,05,21,00,02,11.50
2018,05,21,00,03,11.50
2018,05,21,00,04,11.50
2018,05,21,00,05,11.50
2018,05,21,00,06,11.50
2018,05,21,00,07,11.50
2018,05,21,00,08,11.50
2018,05,21,00,09,11.50
2018,05,21,00,10,11.50
2018,05,21,00,11,11.50
2018,05,21,00,12,11.50
2018,05,21,00,13,11.50
2018,05,21,00,14,11.50
2018,05,21,00,15,11.50
2018,05,21,00,16,11.50
2018,05,21,00,17,11.50
2018,05,21,00,18,11.50
2018,05,21,00,19,11.40
2018,05,21,00,20,11.40
2018,05,21,00,21,11.40
2018,05,21,00,22,11.40
2018,05,21,00,23,11.40
2018,05,21,00,24,11.30
2018,05,21,00,25,11.30
2018,05,21,00,26,11.30
2018,05,21,00,27,11.30
2018,05,21,00,28,11.30
2018,05,21,00,29,11.20
2018,05,21,00,30,11.20
2018,05,21,00,31,11.20
2018,05,21,00,32,11.20
2018,05,21,00,33,11.10
2018,05,21,00,34,11.10
2018,05,21,00,35,11.10
2018,05,21,00,36,11.10
2018,05,21,00,37,11.10
2018,05,21,00,38,11.10
2018,05,21,00,39,11.10
2018,05,21,00,40,11.10
2018,05,21,00,41,11.10
2018,05,21,00,42,11.10
2018,05,21,00,43,11.10
2018,05,21,00,44,11.10
2018,05,21,00,45,11.10
2018,05,21,00,46,11.10
2018,05,21,00,47,11.10
2018,05,21,00,48,11.10
2018,05,21,00,49,11.20
2018,05,21,00,50,11.20
2018,05,21,00,51,11.20
2018,05,21,00,52,11.20
2018,05,21,00,53,11.20
2018,05,21,00,54,11.20
2018,05,21,00,55,11.30
2018,05,21,00,56,11.30
2018,05,21,00,57,11.30
2018,05,21,00,58,11.30
2018,05,21,00,59,11.30
2018,05,21,01,00,11.30
2018,05,21,01,01,11.30
2018,05,21,01,02,11.40
2018,05,21,01,03,11.40
2018,05,21,01,04,11.40
2018,05,21,01,05,11.40
2018,05,21,01,06,11.50
2018,05,21,01,07,11.50
2018,05,21,01,08,11.60
2018,05,21,01,09,11.60
2018,05,21,01,10,11.60
2018,05,21,01,11,11.60
2018,05,21,01,12,11.60
2018,05,21,01,13,11.60
2018,05,21,01,14,11.60
2018,05,21,01,15,11.60
2018,05,21,01,16,11.60
2018,05,21,01,17,11.60
2018,05,21,01,18,11.70
2018,05,21,01,19,11.60
2018,05,21,01,20,11.60
2018,05,21,01,21,11.60
2018,05,21,01,22,11.60
2018,05,21,01,23,11.60
2018,05,21,01,24,11.60
2018,05,21,01,25,11.60
2018,05,21,01,26,11.60
2018,05,21,01,27,11.50
2018,05,21,01,28,11.50
2018,05,21,01,29,11.50
2018,05,21,01,30,11.50
2018,05,21,01,31,11.40
2018,05,21,01,32,11.40
2018,05,21,01,33,11.40
2018,05,21,01,34,11.30
2018,05,21,01,35,11.30
2018,05,21,01,36,11.30
2018,05,21,01,37,11.30
2018,05,21,01,38,11.20
2018,05,21,01,39,11.20
2018,05,21,01,40,11.20
2018,05,21,01,41,11.20
2018,05,21,01,42,11.10
2018,05,21,01,43,11.10
2018,05,21,01,44,11.10
2018,05,21,01,45,11.10
2018,05,21,01,46,11.10
2018,05,21,01,47,11.10
2018,05,21,01,48,11.10
2018,05,21,01,49,11.10
2018,05,21,01,50,11.10
2018,05,21,01,51,11.10
2018,05,21,01,52,11.10
2018,05,21,01,53,11.10
2018,05,21,01,54,11.10
2018,05,21,01,55,11.10
2018,05,21,01,56,11.10
2018,05,21,01,57,11.10
2018,05,21,01,58,11.00
2018,05,21,01,59,11.00
2018,05,21,02,00,11.00
2018,05,21,02,01,10.90
2018,05,21,02,02,10.90
2018,05,21,02,03,10.90
2018,05,21,02,04,10.90
2018,05,21,02,05,10.90
2018,05,21,02,06,10.80
2018,05,21,02,07,10.80
2018,05,21,02,08,10.80
2018,05,21,02,09,10.80
2018,05,21,02,10,10.80
2018,05,21,02,11,10.80
2018,05,21,02,12,10.70
2018,05,21,02,13,10.70
2018,05,21,02,14,10.70
2018,05,21,02,15,10.70
2018,05,21,02,16,10.60
2018,05,21,02,17,10.60
2018,05,21,02,18,10.60
2018,05,21,02,19,10.60
2018,05,21,02,20,10.50
2018,05,21,02,21,10.50
2018,05,21,02,22,10.50
2018,05,21,02,23,10.40
2018,05,21,02,24,10.40
2018,05,21,02,25,10.40
2018,05,21,02,26,10.40
2018,05,21,02,27,10.40
2018,05,21,02,28,10.30
2018,05,21,02,29,10.30
2018,05,21,02,30,10.30
2018,05,21,02,31,10.30
2018,05,21,02,32,10.20
2018,05,21,02,33,10.20
2018,05,21,02,34,10.20
2018,05,21,02,35,10.20
2018,05,21,02,36,10.20
2018,05,21,02,37,10.20
2018,05,21,02,38,10.30
2018,05,21,02,39,10.30
2018,05,21,02,40,10.30
2018,05,21,02,41,10.30
2018,05,21,02,42,10.30
2018,05,21,02,43,10.30
2018,05,21,02,44,10.30
2018,05,21,02,45,10.30
2018,05,21,02,46,10.30
2018,05,21,02,47,10.30
2018,05,21,02,48,10.30
2018,05,21,02,49,10.20
2018,05,21,02,50,10.20
2018,05,21,02,51,10.20
2018,05,21,02,52,10.30
2018,05,21,02,53,10.30
2018,05,21,02,54,10.30
2018,05,21,02,55,10.30
2018,05,21,02,56,10.30
2018,05,21,02,57,10.30
2018,05,21,02,58,10.30
2018,05,21,02,59,10.40
2018,05,21,03,00,10.40
2018,05,21,03,01,10.40
2018,05,21,03,02,10.40
2018,05,21,03,03,10.30
2018,05,21,03,04,10.30
2018,05,21,03,05,10.30
2018,05,21,03,06,10.30
2018,05,21,03,07,10.30
2018,05,21,03,08,10.30
2018,05,21,03,09,10.30
2018,05,21,03,10,10.30
2018,05,21,03,11,10.30
2018,05,21,03,12,10.30
2018,05,21,03,13,10.20
2018,05,21,03,14,10.20
2018,05,21,03,15,10.20
2018,05,21,03,16,10.10
2018,05,21,03,17,10.10
2018,05,21,03,18,10.10
2018,05,21,03,19,10.10
2018,05,21,03,20,10.00
2018,05,21,03,21,10.00
2018,05,21,03,22,10.00
2018,05,21,03,23,9.90
2018,05,21,03,24,9.90
2018,05,21,03,25,9.90
2018,05,21,03,26,9.80
2018,05,21,03,27,9.80
2018,05,21,03,28,9.80
2018,05,21,03,29,9.70
2018,05,21,03,30,9.70
2018,05,21,03,31,9.70
2018,05,21,03,32,9.70
2018,05,21,03,33,9.70
2018,05,21,03,34,9.70
2018,05,21,03,35,9.70
2018,05,21,03,36,9.70
2018,05,21,03,37,9.70
2018,05,21,03,38,9.70
2018,05,21,03,39,9.60
2018,05,21,03,40,9.60
2018,05,21,03,41,9.60
2018,05,21,03,42,9.60
2018,05,21,03,43,9.60
2018,05,21,03,44,9.60
2018,05,21,03,45,9.50
2018,05,21,03,46,9.50
2018,05,21,03,47,9.50
2018,05,21,03,48,9.50
2018,05,21,03,49,9.60
2018,05,21,03,50,9.60
2018,05,21,03,51,9.60
2018,05,21,03,52,9.60
2018,05,21,03,53,9.60
2018,05,21,03,54,9.60
2018,05,21,03,55,9.50
2018,05,21,03,56,9.50
2018,05,21,03,57,9.50
2018,05,21,03,58,9.50
2018,05,21,03,59,9.40
2018,05,21,04,00,9.40
2018,05,21,04,01,9.40
2018,05,21,04,02,9.30
2018,05,21,04,03,9.30
2018,05,21,04,04,9.30
2018,05,21,04,05,9.30
2018,05,21,04,06,9.30
2018,05,21,04,07,9.30
2018,05,21,04,08,9.20
2018,05,21,04,09,9.20
2018,05,21,04,10,9.20
2018,05,21,04,11,9.20
2018,05,21,04,12,9.20
2018,05,21,04,13,9.20
2018,05,21,04,14,9.20
2018,05,21,04,15,9.20
2018,05,21,04,16,9.20
2018,05,21,04,17,9.20
2018,05,21,04,18,9.20
2018,05,21,04,19,9.20
2018,05,21,04,20,9.20
2018,05,21,04,21,9.20
2018,05,21,04,22,9.10
2018,05,21,04,23,9.10
2018,05,21,04,24,9.10
2018,05,21,04,25,9.10
2018,05,21,04,26,9.10
2018,05,21,04,27,9.00
2018,05,21,04,28,9.00
2018,05,21,04,29,9.00
2018,05,21,04,30,9.00
2018,05,21,04,31,9.00
2018,05,21,04,32,8.90
2018,05,21,04,33,8.90
2018,05,21,04,34,8.90
2018,05,21,04,35,8.90
2018,05,21,04,36,8.90
2018,05,21,04,37,8.90
2018,05,21,04,38,8.90
2018,05,21,04,39,9.00
2018,05,21,04,40,9.00
2018,05,21,04,41,9.00
2018,05,21,04,42,9.00
2018,05,21,04,43,9.00
2018,05,21,04,44,9.00
2018,05,21,04,45,8.90
2018,05,21,04,46,8.90
2018,05,21,04,47,8.90
2018,05,21,04,48,8.90
2018,05,21,04,49,8.90
2018,05,21,04,50,8.90
2018,05,21,04,51,8.90
2018,05,21,04,52,8.90
2018,05,21,04,53,8.90
2018,05,21,04,54,8.80
2018,05,21,04,55,8.90
2018,05,21,04,56,8.80
2018,05,21,04,57,8.80
2018,05,21,04,58,8.80
2018,05,21,04,59,8.80
2018,05,21,05,00,8.80
2018,05,21,05,01,8.80
2018,05,21,05,02,8.80
2018,05,21,05,03,8.80
2018,05,21,05,04,8.80
2018,05,21,05,05,8.80
2018,05,21,05,06,8.80
2018,05,21,05,07,8.80
2018,05,21,05,08,8.80
2018,05,21,05,09,8.80
2018,05,21,05,10,8.80
2018,05,21,05,11,8.80
2018,05,21,05,12,8.90
2018,05,21,05,13,8.90
2018,05,21,05,14,8.90
2018,05,21,05,15,8.80
2018,05,21,05,16,8.80
2018,05,21,05,17,8.80
2018,05,21,05,18,8.80
2018,05,21,05,19,8.80
2018,05,21,05,20,8.80
2018,05,21,05,21,8.80
2018,05,21,05,22,8.70
2018,05,21,05,23,8.70
2018,05,21,05,24,8.70
2018,05,21,05,25,8.70
2018,05,21,05,26,8.70
2018,05,21,05,27,8.70
2018,05,21,05,28,8.70
2018,05,21,05,29,8.70
2018,05,21,05,30,8.70
2018,05,21,05,31,8.70
2018,05,21,05,32,8.70
2018,05,21,05,33,8.70
2018,05,21,05,34,8.70
2018,05,21,05,35,8.70
2018,05,21,05,36,8.60
2018,05,21,05,37,8.60
2018,05,21,05,38,8.60
2018,05,21,05,39,8.60
2018,05,21,05,40,8.60
2018,05,21,05,41,8.60
2018,05,21,05,42,8.60
2018,05,21,05,43,8.60
2018,05,21,05,44,8.60
2018,05,21,05,45,8.50
2018,05,21,05,46,8.60
2018,05,21,05,47,8.60
2018,05,21,05,48,8.60
2018,05,21,05,49,8.60
2018,05,21,05,50,8.60
2018,05,21,05,51,8.60
2018,05,21,05,52,8.50
2018,05,21,05,53,8.50
2018,05,21,05,54,8.50
2018,05,21,05,55,8.50
2018,05,21,05,56,8.60
2018,05,21,05,57,8.60
2018,05,21,05,58,8.60
2018,05,21,05,59,8.60
2018,05,21,06,00,8.60
2018,05,21,06,01,8.50
2018,05,21,06,02,8.50
2018,05,21,06,03,8.50
2018,05,21,06,04,8.50
2018,05,21,06,05,8.50
2018,05,21,06,06,8.60
2018,05,21,06,07,8.60
2018,05,21,06,08,8.60
2018,05,21,06,09,8.60
2018,05,21,06,10,8.60
2018,05,21,06,11,8.70
2018,05,21,06,12,8.70
2018,05,21,06,13,8.70
2018,05,21,06,14,8.70
2018,05,21,06,15,8.70
2018,05,21,06,16,8.70
2018,05,21,06,17,8.80
2018,05,21,06,18,8.80
2018,05,21,06,19,8.80
2018,05,21,06,20,8.90
2018,05,21,06,21,8.90
2018,05,21,06,22,8.90
2018,05,21,06,23,9.00
2018,05,21,06,24,9.10
2018,05,21,06,25,9.10
2018,05,21,06,26,9.10
2018,05,21,06,27,9.20
2018,05,21,06,28,9.20
2018,05,21,06,29,9.30
2018,05,21,06,30,9.30
2018,05,21,06,31,9.40
2018,05,21,06,32,9.40
2018,05,21,06,33,9.50
2018,05,21,06,34,9.50
2018,05,21,06,35,9.60
2018,05,21,06,36,9.70
2018,05,21,06,37,9.80
2018,05,21,06,38,9.80
2018,05,21,06,39,9.90
2018,05,21,06,40,9.90
2018,05,21,06,41,10.00
2018,05,21,06,42,10.00
2018,05,21,06,43,10.00
2018,05,21,06,44,10.00
2018,05,21,06,45,10.00
2018,05,21,06,46,10.10
2018,05,21,06,47,10.10
2018,05,21,06,48,10.10
2018,05,21,06,49,10.10
2018,05,21,06,50,10.10
2018,05,21,06,51,10.10
2018,05,21,06,52,10.10
2018,05,21,06,53,10.10
2018,05,21,06,54,10.10
2018,05,21,06,55,10.10
2018,05,21,06,56,10.10
2018,05,21,06,57,10.10
2018,05,21,06,58,10.10
2018,05,21,06,59,10.10
2018,05,21,07,00,10.20
2018,05,21,07,01,10.20
2018,05,21,07,02,10.20
2018,05,21,07,03,10.20
2018,05,21,07,04,10.30
2018,05,21,07,05,10.30
2018,05,21,07,06,10.40
2018,05,21,07,07,10.40
2018,05,21,07,08,10.40
2018,05,21,07,09,10.50
2018,05,21,07,10,10.50
2018,05,21,07,11,10.60
2018,05,21,07,12,10.60
2018,05,21,07,13,10.60
2018,05,21,07,14,10.60
2018,05,21,07,15,10.70
2018,05,21,07,16,10.70
2018,05,21,07,17,10.80
2018,05,21,07,18,10.80
2018,05,21,07,19,10.90
2018,05,21,07,20,10.90
2018,05,21,07,21,10.90
2018,05,21,07,22,11.00
2018,05,21,07,23,11.00
2018,05,21,07,24,11.10
2018,05,21,07,25,11.20
2018,05,21,07,26,11.20
2018,05,21,07,27,11.30
2018,05,21,07,28,11.30
2018,05,21,07,29,11.40
2018,05,21,07,30,11.50
2018,05,21,07,31,11.50
2018,05,21,07,32,11.60
2018,05,21,07,33,11.70
2018,05,21,07,34,11.70
2018,05,21,07,35,11.80
2018,05,21,07,36,11.80
2018,05,21,07,37,11.80
2018,05,21,07,38,11.80
2018,05,21,07,39,11.90
2018,05,21,07,40,12.00
2018,05,21,07,41,12.10
2018,05,21,07,42,12.20
2018,05,21,07,43,12.30
2018,05,21,07,44,12.40
2018,05,21,07,45,12.50
2018,05,21,07,46,12.60
2018,05,21,07,47,12.60
2018,05,21,07,48,12.70
2018,05,21,07,49,12.70
2018,05,21,07,50,12.70
2018,05,21,07,51,12.70
2018,05,21,07,52,12.80
2018,05,21,07,53,13.00
2018,05,21,07,54,13.10
2018,05,21,07,55,13.20
2018,05,21,07,56,13.30
2018,05,21,07,57,13.30
2018,05,21,07,58,13.40
2018,05,21,07,59,13.50
2018,05,21,08,00,13.50
2018,05,21,08,01,13.60
2018,05,21,08,02,13.60
2018,05,21,08,03,13.60
2018,05,21,08,04,13.50
2018,05,21,08,05,13.60
2018,05,21,08,06,13.60
2018,05,21,08,07,13.60
2018,05,21,08,08,13.50
2018,05,21,08,09,13.50
2018,05,21,08,10,13.50
2018,05,21,08,11,13.50
2018,05,21,08,12,13.50
2018,05,21,08,13,13.50
2018,05,21,08,14,13.50
2018,05,21,08,15,13.50
2018,05,21,08,16,13.50
2018,05,21,08,17,13.40
2018,05,21,08,18,13.40
2018,05,21,08,19,13.40
2018,05,21,08,20,13.40
2018,05,21,08,21,13.40
2018,05,21,08,22,13.30
2018,05,21,08,23,13.40
2018,05,21,08,24,13.40
2018,05,21,08,25,13.40
2018,05,21,08,26,13.40
2018,05,21,08,27,13.50
2018,05,21,08,28,13.50
2018,05,21,08,29,13.60
2018,05,21,08,30,13.60
2018,05,21,08,31,13.60
2018,05,21,08,32,13.70
2018,05,21,08,33,13.70
2018,05,21,08,34,13.70
2018,05,21,08,35,13.70
2018,05,21,08,36,13.70
2018,05,21,08,37,13.70
2018,05,21,08,38,13.70
2018,05,21,08,39,13.70
2018,05,21,08,40,13.80
2018,05,21,08,41,14.00
2018,05,21,08,42,14.00
2018,05,21,08,43,14.00
2018,05,21,08,44,14.10
2018,05,21,08,45,14.10
2018,05,21,08,46,14.10
2018,05,21,08,47,14.20
2018,05,21,08,48,14.20
2018,05,21,08,49,14.20
2018,05,21,08,50,14.20
2018,05,21,08,51,14.20
2018,05,21,08,52,14.20
2018,05,21,08,53,14.20
2018,05,21,08,54,14.30
2018,05,21,08,55,14.30
2018,05,21,08,56,14.30
2018,05,21,08,57,14.40
2018,05,21,08,58,14.40
2018,05,21,08,59,14.40
2018,05,21,09,00,14.50
2018,05,21,09,01,14.50
2018,05,21,09,02,14.60
2018,05,21,09,03,14.70
2018,05,21,09,04,14.70
2018,05,21,09,05,14.70
2018,05,21,09,06,14.80
2018,05,21,09,07,14.80
2018,05,21,09,08,14.70
2018,05,21,09,09,14.70
2018,05,21,09,10,14.70
2018,05,21,09,11,14.70
2018,05,21,09,12,14.70
2018,05,21,09,13,14.70
2018,05,21,09,14,14.80
2018,05,21,09,15,14.80
2018,05,21,09,16,14.80
2018,05,21,09,17,14.80
2018,05,21,09,18,14.80
2018,05,21,09,19,14.80
2018,05,21,09,20,14.80
2018,05,21,09,21,14.80
2018,05,21,09,22,14.80
2018,05,21,09,23,14.80
2018,05,21,09,24,14.90
2018,05,21,09,25,14.90
2018,05,21,09,26,15.00
2018,05,21,09,27,15.00
2018,05,21,09,28,15.10
2018,05,21,09,29,15.20
2018,05,21,09,30,15.20
2018,05,21,09,31,15.30
2018,05,21,09,32,15.30
2018,05,21,09,33,15.30
2018,05,21,09,34,15.30
2018,05,21,09,35,15.30
2018,05,21,09,36,15.30
2018,05,21,09,37,15.30
2018,05,21,09,38,15.30
2018,05,21,09,39,15.30
2018,05,21,09,40,15.30
2018,05,21,09,41,15.30
2018,05,21,09,42,15.20
2018,05,21,09,43,15.20
2018,05,21,09,44,15.20
2018,05,21,09,45,15.20
2018,05,21,09,46,15.20
2018,05,21,09,47,15.20
2018,05,21,09,48,15.20
2018,05,21,09,49,15.20
2018,05,21,09,50,15.20
2018,05,21,09,51,15.10
2018,05,21,09,52,15.10
2018,05,21,09,53,15.20
2018,05,21,09,54,15.20
2018,05,21,09,55,15.20
2018,05,21,09,56,15.20
2018,05,21,09,57,15.20
2018,05,21,09,58,15.30
2018,05,21,09,59,15.30
2018,05,21,10,00,15.30
2018,05,21,10,01,15.30
2018,05,21,10,02,15.40
2018,05,21,10,03,15.40
2018,05,21,10,04,15.40
2018,05,21,10,05,15.40
2018,05,21,10,06,15.50
2018,05,21,10,07,15.50
2018,05,21,10,08,15.50
2018,05,21,10,09,15.60
2018,05,21,10,10,15.60
2018,05,21,10,11,15.60
2018,05,21,10,12,15.60
2018,05,21,10,13,15.60
2018,05,21,10,14,15.60
2018,05,21,10,15,15.60
2018,05,21,10,16,15.60
2018,05,21,10,17,15.60
2018,05,21,10,18,15.60
2018,05,21,10,19,15.70
2018,05,21,10,20,15.70
2018,05,21,10,21,15.70
2018,05,21,10,22,15.70
2018,05,21,10,23,15.80
2018,05,21,10,24,15.80
2018,05,21,10,25,15.80
2018,05,21,10,26,15.90
2018,05,21,10,27,15.90
2018,05,21,10,28,15.90
2018,05,21,10,29,15.90
2018,05,21,10,30,15.90
2018,05,21,10,31,16.00
2018,05,21,10,32,16.00
2018,05,21,10,33,16.10
2018,05,21,10,34,16.10
2018,05,21,10,35,16.20
2018,05,21,10,36,16.20
2018,05,21,10,37,16.20
2018,05,21,10,38,16.20
2018,05,21,10,39,16.20
2018,05,21,10,40,16.10
2018,05,21,10,41,16.10
2018,05,21,10,42,16.10
2018,05,21,10,43,16.10
2018,05,21,10,44,16.20
2018,05,21,10,45,16.20
2018,05,21,10,46,16.30
2018,05,21,10,47,16.40
2018,05,21,10,48,16.50
2018,05,21,10,49,16.60
2018,05,21,10,50,16.60
2018,05,21,10,51,16.60
2018,05,21,10,52,16.60
2018,05,21,10,53,16.60
2018,05,21,10,54,16.60
2018,05,21,10,55,16.60
2018,05,21,10,56,16.60
2018,05,21,10,57,16.60
2018,05,21,10,58,16.60
2018,05,21,10,59,16.60
2018,05,21,11,00,16.70
2018,05,21,11,01,16.80
2018,05,21,11,02,16.90
2018,05,21,11,03,17.00
2018,05,21,11,04,17.00
2018,05,21,11,05,17.10
2018,05,21,11,06,17.20
2018,05,21,11,07,17.20
2018,05,21,11,08,17.20
2018,05,21,11,09,17.30
2018,05,21,11,10,17.30
2018,05,21,11,11,17.30
2018,05,21,11,12,17.30
2018,05,21,11,13,17.30
2018,05,21,11,14,17.40
2018,05,21,11,15,17.50
2018,05,21,11,16,17.60
2018,05,21,11,17,17.70
2018,05,21,11,18,17.80
2018,05,21,11,19,18.00
2018,05,21,11,20,18.10
2018,05,21,11,21,18.10
2018,05,21,11,22,18.10
2018,05,21,11,23,18.00
2018,05,21,11,24,17.90
2018,05,21,11,25,17.90
2018,05,21,11,26,17.90
2018,05,21,11,27,18.00
2018,05,21,11,28,18.10
2018,05,21,11,29,18.10
2018,05,21,11,30,18.10
2018,05,21,11,31,18.00
2018,05,21,11,32,18.00
2018,05,21,11,33,18.00
2018,05,21,11,34,18.10
2018,05,21,11,35,18.10
2018,05,21,11,36,18.20
2018,05,21,11,37,18.20
2018,05,21,11,38,18.30
2018,05,21,11,39,18.30
2018,05,21,11,40,18.30
2018,05,21,11,41,18.20
2018,05,21,11,42,18.20
2018,05,21,11,43,18.20
2018,05,21,11,44,18.20
2018,05,21,11,45,18.20
2018,05,21,11,46,18.20
2018,05,21,11,47,18.20
2018,05,21,11,48,18.30
2018,05,21,11,49,18.30
2018,05,21,11,50,18.30
2018,05,21,11,51,18.40
2018,05,21,11,52,18.40
2018,05,21,11,53,18.50
2018,05,21,11,54,18.50
2018,05,21,11,55,18.60
2018,05,21,11,56,18.70
2018,05,21,11,57,18.70
2018,05,21,11,58,18.80
2018,05,21,11,59,18.90
2018,05,21,12,00,19.00
2018,05,21,12,01,19.10
2018,05,21,12,02,19.10
2018,05,21,12,03,19.20
2018,05,21,12,04,19.20
2018,05,21,12,05,19.20
2018,05,21,12,06,19.30
2018,05,21,12,07,19.30
2018,05,21,12,08,19.30
2018,05,21,12,09,19.30
2018,05,21,12,10,19.30
2018,05,21,12,11,19.30
2018,05,21,12,12,19.30
2018,05,21,12,13,19.40
2018,05,21,12,14,19.40
2018,05,21,12,15,19.40
2018,05,21,12,16,19.30
2018,05,21,12,17,19.20
2018,05,21,12,18,19.10
2018,05,21,12,19,19.10
2018,05,21,12,20,19.10
2018,05,21,12,21,19.10
2018,05,21,12,22,19.20
2018,05,21,12,23,19.30
2018,05,21,12,24,19.40
2018,05,21,12,25,19.40
2018,05,21,12,26,19.50
2018,05,21,12,27,19.50
2018,05,21,12,28,19.50
2018,05,21,12,29,19.50
2018,05,21,12,30,19.50
2018,05,21,12,31,19.60
2018,05,21,12,32,19.60
2018,05,21,12,33,19.70
2018,05,21,12,34,19.70
2018,05,21,12,35,19.70
2018,05,21,12,36,19.60
2018,05,21,12,37,19.50
2018,05,21,12,38,19.40
2018,05,21,12,39,19.40
2018,05,21,12,40,19.40
2018,05,21,12,41,19.40
2018,05,21,12,42,19.50
2018,05,21,12,43,19.50
2018,05,21,12,44,19.60
2018,05,21,12,45,19.60
2018,05,21,12,46,19.70
2018,05,21,12,47,19.70
2018,05,21,12,48,19.70
2018,05,21,12,49,19.60
2018,05,21,12,50,19.60
2018,05,21,12,51,19.50
2018,05,21,12,52,19.50
2018,05,21,12,53,19.40
2018,05,21,12,54,19.40
2018,05,21,12,55,19.40
2018,05,21,12,56,19.40
2018,05,21,12,57,19.30
2018,05,21,12,58,19.40
2018,05,21,12,59,19.40
2018,05,21,13,00,19.40
2018,05,21,13,01,19.40
2018,05,21,13,02,19.40
2018,05,21,13,03,19.40
2018,05,21,13,04,19.40
2018,05,21,13,05,19.50
2018,05,21,13,06,19.50
2018,05,21,13,07,19.60
2018,05,21,13,08,19.70
2018,05,21,13,09,19.70
2018,05,21,13,10,19.70
2018,05,21,13,11,19.70
2018,05,21,13,12,19.60
2018,05,21,13,13,19.70
2018,05,21,13,14,19.70
2018,05,21,13,15,19.80
2018,05,21,13,16,19.80
2018,05,21,13,17,20.00
2018,05,21,13,18,20.00
2018,05,21,13,19,20.10
2018,05,21,13,20,20.10
2018,05,21,13,21,20.20
2018,05,21,13,22,20.10
2018,05,21,13,23,20.10
2018,05,21,13,24,20.10
2018,05,21,13,25,20.00
2018,05,21,13,26,20.10
2018,05,21,13,27,20.10
2018,05,21,13,28,20.00
2018,05,21,13,29,19.90
2018,05,21,13,30,19.70
2018,05,21,13,31,19.70
2018,05,21,13,32,19.70
2018,05,21,13,33,19.60
2018,05,21,13,34,19.70
2018,05,21,13,35,19.70
2018,05,21,13,36,19.70
2018,05,21,13,37,19.70
2018,05,21,13,38,19.70
2018,05,21,13,39,19.70
2018,05,21,13,40,19.70
2018,05,21,13,41,19.70
2018,05,21,13,42,19.80
2018,05,21,13,43,19.90
2018,05,21,13,44,19.90
2018,05,21,13,45,19.90
2018,05,21,13,46,19.90
2018,05,21,13,47,19.90
2018,05,21,13,48,20.00
2018,05,21,13,49,20.00
2018,05,21,13,50,20.00
2018,05,21,13,51,20.10
2018,05,21,13,52,20.10
2018,05,21,13,53,20.10
2018,05,21,13,54,20.10
2018,05,21,13,55,20.10
2018,05,21,13,56,20.10
2018,05,21,13,57,20.10
2018,05,21,13,58,20.20
2018,05,21,13,59,20.20
2018,05,21,14,00,20.20
2018,05,21,14,01,20.10
2018,05,21,14,02,20.00
2018,05,21,14,03,19.90
2018,05,21,14,04,19.90
2018,05,21,14,05,19.90
2018,05,21,14,06,19.90
2018,05,21,14,07,20.00
2018,05,21,14,08,20.10
2018,05,21,14,09,20.10
2018,05,21,14,10,20.20
2018,05,21,14,11,20.10
2018,05,21,14,12,20.10
2018,05,21,14,13,20.00
2018,05,21,14,14,19.90
2018,05,21,14,15,19.90
2018,05,21,14,16,19.80
2018,05,21,14,17,19.80
2018,05,21,14,18,19.80
2018,05,21,14,19,19.80
2018,05,21,14,20,19.80
2018,05,21,14,21,19.80
2018,05,21,14,22,19.80
2018,05,21,14,23,19.90
2018,05,21,14,24,19.90
2018,05,21,14,25,19.80
2018,05,21,14,26,19.80
2018,05,21,14,27,19.80
2018,05,21,14,28,19.90
2018,05,21,14,29,20.00
2018,05,21,14,30,20.00
2018,05,21,14,31,20.10
2018,05,21,14,32,20.10
2018,05,21,14,33,20.10
2018,05,21,14,34,20.10
2018,05,21,14,35,20.00
2018,05,21,14,36,20.00
2018,05,21,14,37,19.90
2018,05,21,14,38,19.90
2018,05,21,14,39,19.80
2018,05,21,14,40,19.70
2018,05,21,14,41,19.70
2018,05,21,14,42,19.80
2018,05,21,14,43,19.80
2018,05,21,14,44,19.90
2018,05,21,14,45,19.90
2018,05,21,14,46,20.00
2018,05,21,14,47,20.00
2018,05,21,14,48,20.00
2018,05,21,14,49,20.00
2018,05,21,14,50,20.00
2018,05,21,14,51,20.10
2018,05,21,14,52,20.10
2018,05,21,14,53,20.10
2018,05,21,14,54,20.10
2018,05,21,14,55,20.10
2018,05,21,14,56,20.10
2018,05,21,14,57,20.00
2018,05,21,14,58,20.00
2018,05,21,14,59,19.90
2018,05,21,15,00,19.90
2018,05,21,15,01,19.90
2018,05,21,15,02,19.90
2018,05,21,15,03,19.80
2018,05,21,15,04,19.90
2018,05,21,15,05,19.90
2018,05,21,15,06,19.90
2018,05,21,15,07,20.00
2018,05,21,15,08,20.00
2018,05,21,15,09,20.00
2018,05,21,15,10,20.00
2018,05,21,15,11,19.90
2018,05,21,15,12,19.90
2018,05,21,15,13,19.90
2018,05,21,15,14,19.90
2018,05,21,15,15,20.00
2018,05,21,15,16,20.00
2018,05,21,15,17,20.10
2018,05,21,15,18,20.10
2018,05,21,15,19,20.20
2018,05,21,15,20,20.30
2018,05,21,15,21,20.30
2018,05,21,15,22,20.30
2018,05,21,15,23,20.30
2018,05,21,15,24,20.30
2018,05,21,15,25,20.30
2018,05,21,15,26,20.40
2018,05,21,15,27,20.40
2018,05,21,15,28,20.40
2018,05,21,15,29,20.40
2018,05,21,15,30,20.50
2018,05,21,15,31,20.60
2018,05,21,15,32,20.60
2018,05,21,15,33,20.70
2018,05,21,15,34,20.80
2018,05,21,15,35,20.80
2018,05,21,15,36,20.90
2018,05,21,15,37,21.00
2018,05,21,15,38,21.00
2018,05,21,15,39,21.00
2018,05,21,15,40,21.00
2018,05,21,15,41,20.90
2018,05,21,15,42,20.90
2018,05,21,15,43,20.80
2018,05,21,15,44,20.80
2018,05,21,15,45,20.80
2018,05,21,15,46,20.80
2018,05,21,15,47,20.80
2018,05,21,15,48,20.80
2018,05,21,15,49,20.80
2018,05,21,15,50,20.70
2018,05,21,15,51,20.70
2018,05,21,15,52,20.60
2018,05,21,15,53,20.60
2018,05,21,15,54,20.60
2018,05,21,15,55,20.60
2018,05,21,15,56,20.60
2018,05,21,15,57,20.70
2018,05,21,15,58,20.70
2018,05,21,15,59,20.80
2018,05,21,16,00,20.80
2018,05,21,16,01,21.00
2018,05,21,16,02,21.10
2018,05,21,16,03,21.20
2018,05,21,16,04,21.30
2018,05,21,16,05,21.30
2018,05,21,16,06,21.30
2018,05,21,16,07,21.20
2018,05,21,16,08,21.20
2018,05,21,16,09,21.20
2018,05,21,16,10,21.20
2018,05,21,16,11,21.20
2018,05,21,16,12,21.20
2018,05,21,16,13,21.20
2018,05,21,16,14,21.20
2018,05,21,16,15,21.20
2018,05,21,16,16,21.30
2018,05,21,16,17,21.30
2018,05,21,16,18,21.40
2018,05,21,16,19,21.40
2018,05,21,16,20,21.50
2018,05,21,16,21,21.50
2018,05,21,16,22,21.50
2018,05,21,16,23,21.50
2018,05,21,16,24,21.50
2018,05,21,16,25,21.60
2018,05,21,16,26,21.60
2018,05,21,16,27,21.70
2018,05,21,16,28,21.70
2018,05,21,16,29,21.80
2018,05,21,16,30,21.80
2018,05,21,16,31,21.80
2018,05,21,16,32,21.80
2018,05,21,16,33,21.80
2018,05,21,16,34,21.80
2018,05,21,16,35,21.80
2018,05,21,16,36,21.70
2018,05,21,16,37,21.70
2018,05,21,16,38,21.60
2018,05,21,16,39,21.60
2018,05,21,16,40,21.70
2018,05,21,16,41,21.70
2018,05,21,16,42,21.70
2018,05,21,16,43,21.70
2018,05,21,16,44,21.70
2018,05,21,16,45,21.70
2018,05,21,16,46,21.70
2018,05,21,16,47,21.70
2018,05,21,16,48,21.70
2018,05,21,16,49,21.60
2018,05,21,16,50,21.60
2018,05,21,16,51,21.60
2018,05,21,16,52,21.50
2018,05,21,16,53,21.40
2018,05,21,16,54,21.30
2018,05,21,16,55,21.20
2018,05,21,16,56,21.10
2018,05,21,16,57,21.10
2018,05,21,16,58,21.10
2018,05,21,16,59,21.10
2018,05,21,17,00,21.10
2018,05,21,17,01,21.10
2018,05,21,17,02,21.10
2018,05,21,17,03,21.10
2018,05,21,17,04,21.10
2018,05,21,17,05,21.10
2018,05,21,17,06,21.10
2018,05,21,17,07,21.10
2018,05,21,17,08,21.10
2018,05,21,17,09,21.20
2018,05,21,17,10,21.20
2018,05,21,17,11,21.30
2018,05,21,17,12,21.30
2018,05,21,17,13,21.40
2018,05,21,17,14,21.50
2018,05,21,17,15,21.60
2018,05,21,17,16,21.60
2018,05,21,17,17,21.60
2018,05,21,17,18,21.70
2018,05,21,17,19,21.70
2018,05,21,17,20,21.80
2018,05,21,17,21,21.80
2018,05,21,17,22,21.90
2018,05,21,17,23,21.90
2018,05,21,17,24,21.90
2018,05,21,17,25,21.90
2018,05,21,17,26,22.00
2018,05,21,17,27,22.00
2018,05,21,17,28,22.10